(493505) = 2015 BJ102

Discovered at Mount Lemmon on 2007-09-11 by Mt. Lemmon Survey.

Orbit

Orbit type: Main Belt

Note: WebGL enabled browser required.

epoch2023-09-13.0
epoch JD2460200.5
perihelion date2018-07-18.81374
perihelion JD2458318.31374
argument of perihelion (°)184.41283
ascending node (°)180.91943
inclination (°)3.41465
eccentricity0.0911956
perihelion distance (AU)2.8309863
Tisserand w.r.t. Jupiter3.2
ΔV w.r.t. Earth (km/sec)10.5
semimajor axis (AU)3.1150666
mean anomaly (°)337.41582
mean daily motion (°/day)0.17926800
aphelion distance (AU)3.399
period (years)5.5
P-vector [x]0.99567472
P-vector [y]0.08696037
P-vector [z]0.03270695
Q-vector [x]-0.09290284
Q-vector [y]0.93550985
Q-vector [z]0.34086710
absolute magnitude16.75
phase slope0.15
uncertainty0
referenceMPO 780301
observations used161
oppositions13
arc length (days)8080
first opposition used2001
last opposition used2023
residual rms (arc-secs)0.68
perturbers coarse indicatorM-v
perturbers precise indicator003Ek
first observation date used2001-08-24.0
last observation date used2023-10-08.0
computer nameMPCLINUX
Minimum Orbit Intersection Distances (in AU)
for orbit epoch: 2460200.5, reference: E2023-TC0
Mercury2.4682
Venus2.10607
Earth1.82827
Mars1.41987
Jupiter2.04637
Saturn5.90773
Uranus15.0619
Neptune26.9589

Observations

164 total observations over interval: 2001 08 24.33290 – 2023 10 08.274854
These data are available for download (format description).

Date (UT) J2000 RA J2000 Dec Magn Location Ref
2001 08 24.33290 22 55 47.52 -04 42 41.6 21.5 V 691 – Steward Observatory, Kitt Peak-Spacewatch MPS 752288
2001 08 24.35405 22 55 46.66 -04 42 48.1 21.9 V 691 – Steward Observatory, Kitt Peak-Spacewatch MPS 752288
2001 08 24.37522 22 55 45.74 -04 42 54.7 21.3 V 691 – Steward Observatory, Kitt Peak-Spacewatch MPS 752288
2007 09 11.41891 02 09 21.52 +11 29 53.3 21.0 V G96 – Mt. Lemmon Survey MPS 752288
2007 09 11.42712 02 09 21.42 +11 29 52.1 20.9 V G96 – Mt. Lemmon Survey MPS 752288
2007 09 11.43525 02 09 21.34 +11 29 50.7 21.1 V G96 – Mt. Lemmon Survey MPS 752288
2007 09 11.44339 02 09 21.24 +11 29 49.5 21.1 V G96 – Mt. Lemmon Survey MPS 752288
2007 10 09.21008 01 56 34.48 +09 41 09.5 20.8 V 691 – Steward Observatory, Kitt Peak-Spacewatch MPS 752288
2007 10 09.22770 01 56 33.74 +09 41 05.7 20.6 V 691 – Steward Observatory, Kitt Peak-Spacewatch MPS 752288
2007 10 09.24533 01 56 33.00 +09 40 59.3 20.7 V 691 – Steward Observatory, Kitt Peak-Spacewatch MPS 752288
2007 10 09.36456 01 56 27.92 +09 40 22.1 20.7 V G96 – Mt. Lemmon Survey MPS 752288
2007 10 09.37131 01 56 27.63 +09 40 20.3 20.8 V G96 – Mt. Lemmon Survey MPS 752288
2007 10 09.37816 01 56 27.31 +09 40 18.2 20.8 V G96 – Mt. Lemmon Survey MPS 752288
2007 10 09.38494 01 56 26.98 +09 40 16.0 20.2 V G96 – Mt. Lemmon Survey MPS 752288
2007 11 07.22681 01 35 36.34 +07 13 51.6 20.6 V G96 – Mt. Lemmon Survey MPS 752288
2007 11 07.23240 01 35 36.13 +07 13 50.0 21.0 V G96 – Mt. Lemmon Survey MPS 752288
2007 11 07.23790 01 35 35.88 +07 13 48.5 20.7 V G96 – Mt. Lemmon Survey MPS 752288
2007 11 07.24358 01 35 35.66 +07 13 47.2 20.5 V G96 – Mt. Lemmon Survey MPS 752288
2009 01 02.46587 07 48 39.92 +16 27 35.2 21.4 V G96 – Mt. Lemmon Survey MPS 752288
2009 01 02.47395 07 48 39.52 +16 27 36.6 21.1 V G96 – Mt. Lemmon Survey MPS 752288
2009 01 02.48208 07 48 39.13 +16 27 37.1 21.2 V G96 – Mt. Lemmon Survey MPS 752288
2009 01 02.49009 07 48 38.77 +16 27 38.4 22.0 V G96 – Mt. Lemmon Survey MPS 752288
2009 01 16.34240 07 37 03.50 +16 59 22.6 21.3 V G96 – Mt. Lemmon Survey MPS 752288
2009 01 16.34763 07 37 03.18 +16 59 23.7 21.4 V G96 – Mt. Lemmon Survey MPS 752288
2009 01 16.35281 07 37 02.96 +16 59 24.6 21.1 V G96 – Mt. Lemmon Survey MPS 752288
2009 01 16.35787 07 37 02.71 +16 59 25.1 21.3 V G96 – Mt. Lemmon Survey MPS 752288
2011 06 03.29165 16 37 21.61 -17 22 25.9 21.1 V G96 – Mt. Lemmon Survey MPS 752288
2011 06 03.29802 16 37 21.32 -17 22 25.5 20.4 V G96 – Mt. Lemmon Survey MPS 752288
2011 06 03.30441 16 37 20.96 -17 22 24.3 20.7 V G96 – Mt. Lemmon Survey MPS 752288
2011 06 03.31080 16 37 20.67 -17 22 23.4 20.8 V G96 – Mt. Lemmon Survey MPS 752288
2013 12 24.21004 04 33 13.92 +17 08 46.4 21.0 V G96 – Mt. Lemmon Survey MPS 752288
2013 12 24.21948 04 33 13.49 +17 08 45.7 20.6 V G96 – Mt. Lemmon Survey MPS 752288
2013 12 24.22892 04 33 13.09 +17 08 44.7 20.7 V G96 – Mt. Lemmon Survey MPS 752288
2013 12 24.23836 04 33 12.62 +17 08 45.2 21.0 V G96 – Mt. Lemmon Survey MPS 752288
2015 01 16.47989 10 20 16.450 +07 24 04.55 21.8 w F51 – Pan-STARRS 1, Haleakala MPS 563261
2015 01 16.49130 10 20 16.134 +07 24 06.51 21.7 w F51 – Pan-STARRS 1, Haleakala MPS 563261
2015 01 16.50274 10 20 15.847 +07 24 07.67 22.1 w F51 – Pan-STARRS 1, Haleakala MPS 563261
2015 01 16.51416 10 20 15.533 +07 24 09.83 21.9 w F51 – Pan-STARRS 1, Haleakala MPS 563261
2015 01 18.47345 10 19 24.476 +07 29 04.64 22.0 w F51 – Pan-STARRS 1, Haleakala MPS 713969
2015 01 18.48635 10 19 24.118 +07 29 06.46 21.7 w F51 – Pan-STARRS 1, Haleakala MPS 713969
2015 01 18.49926 10 19 23.737 +07 29 08.74 21.8 w F51 – Pan-STARRS 1, Haleakala MPS 713969
2015 01 20.42989 10 18 29.315 +07 34 26.45 21.9 w F51 – Pan-STARRS 1, Haleakala MPS 563261
2015 01 20.44848 10 18 28.740 +07 34 29.35 21.9 w F51 – Pan-STARRS 1, Haleakala MPS 563261
2015 01 20.46190 10 18 28.343 +07 34 31.89 21.7 w F51 – Pan-STARRS 1, Haleakala MPS 563261
2015 02 16.33002 10 00 43.390 +09 23 26.90 21.3 w F51 – Pan-STARRS 1, Haleakala MPS 580488
2015 02 16.34259 10 00 42.799 +09 23 30.57 21.2 w F51 – Pan-STARRS 1, Haleakala MPS 580488
2015 02 16.35509 10 00 42.200 +09 23 33.95 21.2 w F51 – Pan-STARRS 1, Haleakala MPS 580488
2015 02 16.36766 10 00 41.620 +09 23 37.59 21.4 w F51 – Pan-STARRS 1, Haleakala MPS 580488
2015 02 17.38141 09 59 55.392 +09 28 30.83 21.4 w F51 – Pan-STARRS 1, Haleakala MPS 580488
2015 02 17.39426 09 59 54.793 +09 28 34.47 21.3 w F51 – Pan-STARRS 1, Haleakala MPS 580488
2015 02 17.40712 09 59 54.195 +09 28 38.25 21.2 w F51 – Pan-STARRS 1, Haleakala MPS 580488
2015 02 17.42001 09 59 53.576 +09 28 41.92 21.2 w F51 – Pan-STARRS 1, Haleakala MPS 580488
2015 03 19.40913 09 40 18.692 +11 40 35.10 21.8 w F51 – Pan-STARRS 1, Haleakala MPS 587293
2015 03 19.42112 09 40 18.344 +11 40 37.56 21.8 w F51 – Pan-STARRS 1, Haleakala MPS 587293
2015 03 19.43311 09 40 17.998 +11 40 40.06 21.8 w F51 – Pan-STARRS 1, Haleakala MPS 587293
2016 03 13.54972 14 34 01.121 -13 00 43.53 22.0 w F51 – Pan-STARRS 1, Haleakala MPS 752288
2016 03 13.56209 14 34 00.956 -13 00 41.77 22.4 w F51 – Pan-STARRS 1, Haleakala MPS 752288
2016 03 13.57454 14 34 00.771 -13 00 40.23 22.3 w F51 – Pan-STARRS 1, Haleakala MPS 752288
2016 04 30.40866 14 06 41.170 -09 54 54.45 21.4 w F51 – Pan-STARRS 1, Haleakala MPS 752288
2016 04 30.42125 14 06 40.600 -09 54 50.81 21.5 w F51 – Pan-STARRS 1, Haleakala MPS 752288
2016 04 30.43387 14 06 40.031 -09 54 47.42 21.4 w F51 – Pan-STARRS 1, Haleakala MPS 752288
2016 04 30.44648 14 06 39.441 -09 54 43.96 21.6 w F51 – Pan-STARRS 1, Haleakala MPS 752288
2016 05 01.12977 14 06 09.68 -09 51 38.2 21.7 V W84 – Cerro Tololo-DECam MPS 785590
2016 05 01.13294 14 06 09.55 -09 51 37.4   W84 – Cerro Tololo-DECam MPS 785590
2016 05 01.13614 14 06 09.40 -09 51 36.5   W84 – Cerro Tololo-DECam MPS 785590
2016 05 01.13933 14 06 09.26 -09 51 35.7   W84 – Cerro Tololo-DECam MPS 785590
2016 05 01.14249 14 06 09.11 -09 51 34.8   W84 – Cerro Tololo-DECam MPS 785590
2016 05 03.19753 14 04 39.96 -09 42 31.9 22.1 V W84 – Cerro Tololo-DECam MPS 785590
2016 05 03.20385 14 04 39.68 -09 42 30.2   W84 – Cerro Tololo-DECam MPS 785590
2016 05 03.20702 14 04 39.54 -09 42 29.4   W84 – Cerro Tololo-DECam MPS 785590
2016 05 04.13661 14 03 59.80 -09 38 27.4 21.9 V W84 – Cerro Tololo-DECam MPS 785590
2016 05 04.13976 14 03 59.67 -09 38 26.6   W84 – Cerro Tololo-DECam MPS 785590
2016 05 04.14293 14 03 59.53 -09 38 25.9   W84 – Cerro Tololo-DECam MPS 785590
2016 05 04.14610 14 03 59.39 -09 38 25.0   W84 – Cerro Tololo-DECam MPS 785590
2016 05 04.14928 14 03 59.25 -09 38 24.2   W84 – Cerro Tololo-DECam MPS 785590
2017 06 21.51498 19 35 32.673 -16 43 52.60 21.2 w F51 – Pan-STARRS 1, Haleakala MPS 802437
2017 06 21.52578 19 35 32.227 -16 43 53.30 21.3 w F51 – Pan-STARRS 1, Haleakala MPS 802437
2017 06 21.53654 19 35 31.795 -16 43 53.97 21.1 w F51 – Pan-STARRS 1, Haleakala MPS 802437
2017 06 21.54734 19 35 31.366 -16 43 54.42 21.1 w F51 – Pan-STARRS 1, Haleakala MPS 802437
2018 10 05.43189 01 47 49.78 +09 04 19.4 20.7 G G96 – Mt. Lemmon Survey MPS 924126
2018 10 05.44269 01 47 49.31 +09 04 15.5 20.1 G G96 – Mt. Lemmon Survey MPS 924126
2018 10 05.44781 01 47 49.16 +09 04 14.6 20.6 G G96 – Mt. Lemmon Survey MPS 924126
2018 10 05.45572 01 47 48.81 +09 04 11.3 20.5 G G96 – Mt. Lemmon Survey MPS 924126
2018 10 10.45820 01 44 19.941 +08 37 51.41 20.5 w F52 – Pan-STARRS 2, Haleakala MPS 927302
2018 10 10.48307 01 44 18.819 +08 37 43.14 20.4 w F52 – Pan-STARRS 2, Haleakala MPS 927302
2018 10 10.49554 01 44 18.258 +08 37 39.27 20.6 w F52 – Pan-STARRS 2, Haleakala MPS 927302
2018 10 11.70788 01 43 25.71 +08 31 05.1 21.2 R D29 – Purple Mountain Observatory, XuYi Station MPS 927302
2018 10 11.72202 01 43 25.08 +08 31 02.2 20.3 R D29 – Purple Mountain Observatory, XuYi Station MPS 927302
2018 10 11.73616 01 43 24.32 +08 30 56.9 21.2 R D29 – Purple Mountain Observatory, XuYi Station MPS 927302
2018 10 15.51623 01 40 37.028 +08 10 21.89 20.8 w F52 – Pan-STARRS 2, Haleakala MPS 931121
2018 10 15.52800 01 40 36.485 +08 10 18.06 20.6 w F52 – Pan-STARRS 2, Haleakala MPS 931121
2018 10 15.53978 01 40 35.935 +08 10 14.16 20.7 w F52 – Pan-STARRS 2, Haleakala MPS 931121
2018 10 15.55159 01 40 35.386 +08 10 10.38 20.7 w F52 – Pan-STARRS 2, Haleakala MPS 931121
2018 10 18.28948 01 38 32.70 +07 55 11.6 20.8 G G96 – Mt. Lemmon Survey MPS 931121
2018 10 18.29509 01 38 32.43 +07 55 09.6 20.5 G G96 – Mt. Lemmon Survey MPS 931121
2018 10 18.30071 01 38 32.19 +07 55 08.0 20.5 G G96 – Mt. Lemmon Survey MPS 931121
